Findlay, OH

1:43 PM EDT on July 22, 2017 (GMT -0400)
Findlay

Weather History for KFDY - September, 2013

Change the Weather History Date:

Saturday, September 14, 2013

  Actual Average Record
Temperature  
Mean Temperature 55 °F -  
Max Temperature 69 °F 74 °F 90 °F (2002)
Min Temperature 41 °F 55 °F 35 °F (1975)
Degree Days  
Heating Degree Days 10    
Growing Degree Days 5 (Base 50)    
Moisture  
Dew Point 42 °F    
Average Humidity 65    
Maximum Humidity 93    
Minimum Humidity 33    
Precipitation  
Precipitation 0.00 in - - ()
Sea Level Pressure  
Sea Level Pressure 30.14 in    
Wind  
Wind Speed 3 mph (East)    
Max Wind Speed 7 mph    
Max Gust Speed -    
Visibility 10 miles    
Events      
Averages and records for this station are not official NWS values.
T = Trace of Precipitation, MM = Missing Value Source: NWS Daily Summary

Daily Weather History Graph

Daily Weather History Graph

Search for Another Location

Airport or City:

Trip Planner

Search our weather history database for the weather conditions in past years. The results will help you decide how hot, cold, wet, or windy it might be!

Date:

Astronomy

Sep. 14, 2013 Rise Set
Actual Time 7:14 AM EDT 7:45 PM EDT
Civil Twilight 6:46 AM EDT 8:12 PM EDT
Nautical Twilight 6:14 AM EDT 8:45 PM EDT
Astronomical Twilight 5:40 AM EDT 9:18 PM EDT
Moon 4:27 PM EDT (9/14) 1:43 AM EDT (9/14)
Length of Visible Light 13h 25m
Length of Day
12h 30m
Waxing Gibbous, 72% of the Moon is Illuminated
Sep 14
Waxing Gibbous
Sep 19
Full
Sep 26
Last Quarter
Oct 4
New
Oct 11
First Quarter

Hourly Weather History & Observations

Time (EDT) Temp. Windchill Dew Point Humidity Pressure Visibility Wind Dir Wind Speed Gust Speed Precip Events Conditions
12:53 AM 48.0 °F - 39.9 °F 74% 30.11 in 10.0 mi North 6.9 mph - N/A   Clear
1:53 AM 46.9 °F - 39.0 °F 74% 30.12 in 10.0 mi North 3.5 mph - N/A   Clear
2:53 AM 44.1 °F 42.5 °F 39.9 °F 85% 30.13 in 10.0 mi West 3.5 mph - N/A   Clear
3:53 AM 43.0 °F - 39.9 °F 89% 30.13 in 10.0 mi Calm Calm - N/A   Clear
4:53 AM 42.1 °F - 39.0 °F 89% 30.14 in 10.0 mi Calm Calm - N/A   Clear
5:53 AM 43.0 °F - 39.0 °F 86% 30.14 in 10.0 mi Calm Calm - N/A   Clear
6:53 AM 41.0 °F - 39.0 °F 93% 30.16 in 10.0 mi Calm Calm - N/A   Clear
7:53 AM 43.0 °F - 39.9 °F 89% 30.17 in 10.0 mi Calm Calm - N/A   Clear
8:53 AM 52.0 °F - 43.0 °F 71% 30.18 in 10.0 mi Calm Calm - N/A   Clear
9:53 AM 55.9 °F - 44.1 °F 64% 30.18 in 10.0 mi Calm Calm - N/A   Clear
10:53 AM 55.9 °F - 43.0 °F 62% 30.19 in 10.0 mi Calm Calm - N/A   Clear
11:53 AM 60.1 °F - 44.1 °F 55% 30.19 in 10.0 mi Variable 3.5 mph - N/A   Clear
12:53 PM 63.0 °F - 43.0 °F 48% 30.18 in 10.0 mi NNE 3.5 mph - N/A   Clear
1:53 PM 64.0 °F - 42.1 °F 45% 30.16 in 10.0 mi Calm Calm - N/A   Clear
2:53 PM 64.9 °F - 42.1 °F 43% 30.14 in 9.0 mi Calm Calm - N/A   Clear
3:53 PM 66.0 °F - 39.0 °F 37% 30.12 in 10.0 mi Calm Calm - N/A   Clear
4:53 PM 69.1 °F - 39.0 °F 33% 30.10 in 10.0 mi Calm Calm - N/A   Clear
5:53 PM 69.1 °F - 39.0 °F 33% 30.10 in 10.0 mi NNE 3.5 mph - N/A   Clear
6:53 PM 66.0 °F - 42.1 °F 42% 30.10 in 10.0 mi SE 3.5 mph - N/A   Clear
7:53 PM 64.9 °F - 42.1 °F 43% 30.10 in 10.0 mi Calm Calm - N/A   Clear
8:53 PM 57.0 °F - 46.0 °F 67% 30.12 in 10.0 mi ESE 3.5 mph - N/A   Clear
9:53 PM 55.0 °F - 46.0 °F 72% 30.12 in 10.0 mi SE 3.5 mph - N/A   Clear
10:53 PM 51.1 °F - 45.0 °F 80% 30.12 in 10.0 mi SSE 5.8 mph - N/A   Clear
11:53 PM 50.0 °F - 45.0 °F 83% 30.11 in 10.0 mi SSE 5.8 mph - N/A   Clear